Renton, WA
on Saturday, January 12, 2013

Saturday
Previous Day Next Day
Daily Summary
 ActualAverage (KSEA)Record (KSEA)
Temperature
Mean Temperature °F 42°F  
Max Temperature 37°F 47°F 59°F (1986)
Min Temperature 24°F 37°F 13°F (1963)
Degree Days
Heating Degree Days 34 23  
Month to date heating degree days 284  
Since 1 July heating degree days 2222  
Cooling Degree Days 0 0  
Month to date cooling degree days 0  
Year to date cooling degree days 0  
Moisture
Dew Point 25°F   
Average Humidity 85    
Maximum Humidity 93    
Minimum Humidity 55    
Precipitation
Precipitation 0.00 in 0.19 in 1.30 in (1975)
Month to date precipitation 2.27  
Year to date precipitation 2.27  
Snow
Snow 0.00 in in 1.80 in (1969)
Month to date snowfall  
Since 1 July snowfall  
Snow Depth in   
Wind
Wind Speed 1 mph   
Max Wind Speed 9 mph   
Max Gust Speed mph   
Visibility 9 miles   
Events     

Key: T is trace of precipitation, MM is missing value
Source: NWS Daily Summary
Time(PST)TemperatureDew PointHumidity Pressure Visibility Wind DirectionWind SpeedGust SpeedPrecipitationEvents Conditions
12:53 AM 27.0°F 25.0°F 92% 30.35 in 9.0 miles Calm Calm - N/A   Clear
1:53 AM 27.0°F 25.0°F 92% 30.35 in 9.0 miles Calm Calm - N/A   Clear
2:53 AM 27.0°F 25.0°F 92% 30.36 in 8.0 miles Calm Calm - N/A   Clear
3:53 AM 26.1°F 24.1°F 92% 30.36 in 8.0 miles Calm Calm - N/A   Clear
4:53 AM 25.0°F 23.0°F 92% 30.37 in 9.0 miles Calm Calm - N/A   Clear
5:37 AM 24.8°F 23.0°F 93% 30.35 in 9.0 miles Calm Calm - N/A   Scattered Clouds
5:46 AM 26.6°F 24.8°F 93% 30.35 in 9.0 miles Calm Calm - N/A   Mostly Cloudy
5:53 AM 26.1°F 24.1°F 92% 30.37 in 10.0 miles Calm Calm - N/A   Mostly Cloudy
6:36 AM 24.8°F 23.0°F 93% 30.35 in 10.0 miles Calm Calm - N/A   Partly Cloudy
6:53 AM 25.0°F 23.0°F 92% 30.37 in 10.0 miles Calm Calm - N/A   Clear
7:53 AM 26.1°F 24.1°F 92% 30.39 in 10.0 miles Calm Calm - N/A   Clear
8:49 AM 26.6°F 23.0°F 86% 30.39 in 10.0 miles Calm Calm - N/A   Scattered Clouds
8:53 AM 26.1°F 23.0°F 88% 30.41 in 10.0 miles Calm Calm - N/A   Scattered Clouds
9:53 AM 28.9°F 24.1°F 82% 30.41 in 10.0 miles Calm Calm - N/A   Clear
10:28 AM 30.2°F 28.4°F 93% 30.40 in 7.0 miles Calm Calm - N/A   Partly Cloudy
10:53 AM 30.9°F 28.0°F 89% 30.41 in 7.0 miles Calm Calm - N/A   Scattered Clouds
11:01 AM 30.2°F 28.4°F 93% 30.40 in 7.0 miles North 3.5 mph - N/A   Mostly Cloudy
11:37 AM 32.0°F 28.4°F 87% 30.39 in 7.0 miles Calm Calm - N/A   Clear
11:53 AM 33.1°F 28.0°F 82% 30.40 in 9.0 miles NNW 3.5 mph - N/A   Clear
12:53 PM 35.1°F 28.0°F 76% 30.39 in 10.0 miles NW 4.6 mph - N/A   Clear
1:53 PM 36.0°F 23.0°F 59% 30.40 in 10.0 miles NW 9.2 mph - N/A   Clear
2:53 PM 37.0°F 24.1°F 59% 30.41 in 10.0 miles North 4.6 mph - N/A   Clear
3:53 PM 36.0°F 21.0°F 55% 30.41 in 10.0 miles North 6.9 mph - N/A   Partly Cloudy
4:53 PM 33.8°F 23.0°F 65% 30.40 in 10.0 miles Variable 4.6 mph - N/A   Clear
5:53 PM 32.0°F 25.0°F 75% 30.42 in 10.0 miles Calm Calm - N/A   Clear
6:53 PM 30.0°F 24.1°F 79% 30.43 in 9.0 miles Calm Calm - N/A   Clear
7:53 PM 28.9°F 25.0°F 85% 30.43 in 10.0 miles Calm Calm - N/A   Clear
8:53 PM 27.0°F 24.1°F 89% 30.44 in 10.0 miles Calm Calm - N/A   Clear
9:53 PM 28.0°F 25.0°F 88% 30.44 in 10.0 miles Calm Calm - N/A   Clear
10:53 PM 26.1°F 23.0°F 88% 30.45 in 8.0 miles Calm Calm - N/A   Clear
11:53 PM 26.1°F 23.0°F 88% 30.47 in 8.0 miles SE 3.5 mph - N/A   Clear
Moon Phase
Jan. 12 Jan. 18 Jan. 26 Feb. 03 Feb. 10
Sunrise:07:53 AM (PST) Moon Rise:08:08 AM (PST)1/12
Sunset:04:41 PM (PST) Moon Set:06:26 PM (PST)1/12

Copyright © 2014 The Weather Underground, Inc.